Regional Weather Roundup
Issued by NWS

Home | Current Version | Previous Version | Graphics & Text | Print | Product List | Glossary On
Versions: 1 2 3 4 5 6 7 8 9 10 11 12 13 14 15 16 17 18 19 20 21 22 23 24 25 26 27
000
ASUS45 KBOU 161710
RWRCO

WEATHER ROUNDUP FOR COLORADO
NATIONAL WEATHER SERVICE DENVER/BOULDER CO
1000 AM MST THU NOV 16 2017

NOTE: "FAIR" INDICATES FEW OR NO CLOUDS BELOW 12000 FEET WITH NO
SIGNIFICANT WEATHER AND/OR OBSTRUCTIONS TO VISIBILITY.

COZ001>005-013-030-031-161800-
...NORTHWEST COLORADO...

CITY           SKY/WX    TMP DP  RH WIND       PRES   REMARKS
CRAIG          FAIR      35  23  61 CALM      30.00F
HAYDEN         FAIR      40  22  48 E7        30.01F
MEEKER         FAIR      54  15  21 SW13      30.01F
RABBIT EARS PA FAIR      37  18  44 SW8G17    30.12F
STEAMBOAT SPGS FAIR      36  25  64 CALM      30.01F
WALDEN         FAIR      46  18  31 S9G18     30.02R
$$

COZ006>008-011-161800-
...WEST CENTRAL VALLEYS...

CITY           SKY/WX    TMP DP  RH WIND       PRES   REMARKS
GRAND JUNCTION FAIR      47  24  40 CALM      30.04S
MONTROSE       FAIR      53  20  27 CALM      30.11S
EAGLE          FAIR      41  19  41 CALM      30.10F
RIFLE          FAIR      40  21  46 CALM      30.07F
DELTA          FAIR      44  19  36 N3        30.09F
NUCLA          FAIR      50  16  25 N3        30.15S
$$

COZ017>023-064>068-161800-
...SOUTHWEST COLORADO...

CITY           SKY/WX    TMP DP  RH WIND       PRES   REMARKS
DURANGO        FAIR      45  22  40 E6        30.21S
CORTEZ         FAIR      54  18  24 CALM      30.16F
PAGOSA SPRINGS FAIR      46  17  31 CALM      30.25R
TELLURIDE      FAIR      48  26  40 SW10G18   30.26S
WOLF CREEK PAS FAIR      32  14  47 SW12G22   30.39R WCI  23
$$

COZ009-010-012-014-032>034-037-058>063-161800-
...CENTRAL COLORADO...

CITY           SKY/WX    TMP DP  RH WIND       PRES   REMARKS
ASPEN          FAIR      50  16  25 N9        30.08F
BUENA VISTA    FAIR      49  15  25 CALM      30.09F
COPPER MTN     FAIR      37  14  38 W15G35    30.23R
BERTHOUD PASS  FAIR      32  21  64 NW32G46   30.17S WCI  17
COTTONWOOD PAS FAIR      50  19  29 SW26G39   30.15S
GUNNISON       FAIR      34  17  50 CALM      30.22F
KREMMLING      FAIR      59  12  15 S6        30.06S
LEADVILLE      FAIR      43  10  26 S6        30.14F
MONARCH PASS   FAIR      32  14  47 W38G46    30.37R WCI  16
SALIDA         FAIR      57  15  19 SW13G22   30.16F
SUNLIGHT       FAIR      36  12  38 SW21G30   30.22S
WILKERSON PASS FAIR      37  12  35 SW17G33   30.19R
$$

COZ069>075-161800-
...SAN LUIS VALLEY/SANGRE DE CRISTO MOUNTAINS...

CITY           SKY/WX    TMP DP  RH WIND       PRES   REMARKS
ALAMOSA        FAIR      43  17  35 N3        30.19S
DEL NORTE      FAIR      41  18  38 E5        30.20S
LA VETA PASS   FAIR      43  16  33 S33G48      N/A
SAGUACHE       FAIR      41  18  38 SW3       30.21S
$$

COZ035-036-038>040-161800-
...NORTHERN COLORADO FRONT RANGE...

CITY           SKY/WX    TMP DP  RH WIND       PRES   REMARKS
DENVER INTL AP PTSUNNY   65  16  15 SW15      29.86F
DMNS CITY PARK   N/A     61  18  18 SE8       29.85F
AURORA         PTSUNNY   64  19  17 S17       29.87F
FRONT RANGE AP PTSUNNY   68  16  13 SW14      29.88S
ERIE MUNI ARPT FAIR      64  17  16 CALM      29.88F
BOULDER MUN AP FAIR      57  28  33 N3        29.83F
CENTENNIAL     FAIR      65  19  17 SW21      29.88F
BROOMFIELD     MOSUNNY   64  18  16 SE7       29.87F
FORT COLLINS   FAIR      40  30  67 NW3       29.86S
LONGMONT       FAIR      56  27  33 E3        29.85F
$$

COZ041-046-047-076>085-087-088-161800-
...PIKES PEAK/PALMER DIVIDE AND SOUTHERN FOOTHILLS...

CITY           SKY/WX    TMP DP  RH WIND       PRES   REMARKS
COLO. SPRINGS  PTSUNNY   56  21  25 E5        29.96S
A. F. ACADEMY  SUNNY     51  18  27 SW6       29.96F
SCHRIEVER AFB  FAIR      57  16  20 SW6       29.97S
CHEYENNE MTN   FAIR      53  19  26 NW5       29.94S
ELLICOTT         N/A    N/A N/A N/A SW9       29.95F
FALCON         FAIR      59  12  15 NW9G17    29.98F
FORT CARSON    FAIR      53  21  28 NE5       29.93F
LIMON          FAIR      67  16  14 SW6       29.89F
MONUMENT HILL  FAIR      57  16  19 SW16G22   29.99F
CANON CITY     FAIR      66  21  18 W16G22    29.95F
WALSENBURG     FAIR      64  19  17 W21G26    30.02S
TRINIDAD       FAIR      60  25  26 NW8       30.01S
$$

COZ042>045-048>051-090-091-161800-
...NORTHEAST COLORADO...

CITY           SKY/WX    TMP DP  RH WIND       PRES   REMARKS
GREELEY ARPT   FAIR      36  27  69 E3        29.87F
AKRON          FAIR      60  20  21 SW12      29.85F
BURLINGTON     FAIR      59  29  31 S13       29.88F
WRAY           NOT AVBL
YUMA           FAIR      59  25  27 SW7       29.85S
STERLING       FAIR      45  30  57 SW9       29.84F
HOLYOKE        FAIR      46  28  49 S3        29.85F
FORT MORGAN    FAIR      50  22  34 SW3       29.86F
$$

COZ086-089-092>099-161800-
...SOUTHEAST COLORADO...

CITY           SKY/WX    TMP DP  RH WIND       PRES   REMARKS
PUEBLO         FAIR      53  27  36 NW5       29.93F
LA JUNTA       FAIR      54  28  36 SW6       29.92F
LAMAR          FAIR      49  26  41 CALM      29.92F
SPRINGFIELD      N/A     62  30  29 S7        29.93F
$$




USA.gov is the U.S. government's official web portal to all federal, state and local government web resources and services.